Time,TemperatureF,DewpointF,PressureIn,WindDirection,WindDirectionDegrees,WindSpeedMPH,WindSpeedGustMPH,Humidity,HourlyPrecipIn,Conditions,Clouds,dailyrainin,SoftwareType,DateUTC
2013-07-14 00:01:00,68.4,66.3,28.02,NNW,338,0.0,0.0,93,0.00,,---,0.00,VWS V14.01,2013-07-14 04:01:00,
2013-07-14 00:02:00,68.4,66.3,28.02,NNW,338,0.0,0.0,93,0.00,,---,0.00,VWS V14.01,2013-07-14 04:02:00,
2013-07-14 00:07:00,68.2,66.1,28.02,NNW,338,0.0,0.0,93,0.00,,---,0.00,VWS V14.01,2013-07-14 04:07:00,
2013-07-14 00:12:00,68.2,66.4,28.02,NNW,338,0.0,0.0,94,0.00,,---,0.00,VWS V14.01,2013-07-14 04:12:00,
2013-07-14 00:17:00,68.2,66.4,28.02,NNW,338,0.0,0.0,94,0.00,,---,0.00,VWS V14.01,2013-07-14 04:17:00,
2013-07-14 00:22:00,68.2,66.4,28.02,NNW,338,0.0,0.0,94,0.00,,---,0.00,VWS V14.01,2013-07-14 04:22:00,
2013-07-14 00:27:00,68.2,66.4,28.02,NNW,338,0.0,0.0,94,0.00,,---,0.00,VWS V14.01,2013-07-14 04:27:00,
2013-07-14 00:32:00,68.2,66.4,28.02,NNW,338,0.0,0.0,94,0.00,,---,0.00,VWS V14.01,2013-07-14 04:32:00,
2013-07-14 00:37:00,68.0,66.2,27.99,NNW,338,0.0,0.0,94,0.00,,---,0.00,VWS V14.01,2013-07-14 04:37:00,
2013-07-14 00:43:00,68.2,66.4,27.99,NNW,338,0.0,0.0,94,0.00,,---,0.00,VWS V14.01,2013-07-14 04:43:00,
2013-07-14 00:48:00,68.2,66.4,27.99,NNW,338,0.0,0.0,94,0.00,,---,0.00,VWS V14.01,2013-07-14 04:48:00,
2013-07-14 00:53:00,68.2,66.4,27.99,NNW,338,0.0,0.0,94,0.00,,---,0.00,VWS V14.01,2013-07-14 04:53:00,
2013-07-14 00:58:00,68.2,66.4,27.99,NNW,338,0.0,0.0,94,0.00,,---,0.00,VWS V14.01,2013-07-14 04:58:00,
2013-07-14 01:03:00,68.2,66.4,27.99,NNW,338,0.0,0.0,94,0.00,,---,0.00,VWS V14.01,2013-07-14 05:03:00,
2013-07-14 01:08:00,68.0,66.2,28.02,NNW,338,0.0,0.0,94,0.00,,---,0.00,VWS V14.01,2013-07-14 05:08:00,
2013-07-14 01:13:00,68.0,66.2,28.02,NNW,338,0.0,0.0,94,0.00,,---,0.00,VWS V14.01,2013-07-14 05:13:00,
2013-07-14 01:18:00,68.0,66.2,28.02,NNW,338,0.0,0.0,94,0.00,,---,0.00,VWS V14.01,2013-07-14 05:18:00,
2013-07-14 01:23:00,68.0,66.2,28.02,NNW,338,0.0,0.0,94,0.00,,---,0.00,VWS V14.01,2013-07-14 05:23:00,
2013-07-14 01:28:00,68.0,66.2,28.02,NNW,338,0.0,0.0,94,0.00,,---,0.00,VWS V14.01,2013-07-14 05:28:00,
2013-07-14 01:33:00,67.8,66.3,28.02,NNW,338,0.0,0.0,95,0.00,,---,0.00,VWS V14.01,2013-07-14 05:33:00,
2013-07-14 01:38:00,67.8,66.3,28.02,NNW,338,0.0,0.0,95,0.00,,---,0.00,VWS V14.01,2013-07-14 05:38:00,
2013-07-14 01:44:00,67.8,66.3,28.02,NNW,338,0.0,0.0,95,0.00,,---,0.00,VWS V14.01,2013-07-14 05:44:00,
2013-07-14 01:49:00,67.8,66.3,28.02,NNW,338,0.0,0.0,95,0.00,,---,0.00,VWS V14.01,2013-07-14 05:49:00,
2013-07-14 01:54:00,67.6,66.2,27.99,NNW,338,0.0,0.0,95,0.00,,---,0.00,VWS V14.01,2013-07-14 05:54:00,
2013-07-14 01:59:00,67.6,66.2,27.99,NNW,338,0.0,0.0,95,0.00,,---,0.00,VWS V14.01,2013-07-14 05:59:00,
2013-07-14 02:04:00,67.6,66.2,27.99,NNW,338,0.0,0.0,95,0.00,,---,0.00,VWS V14.01,2013-07-14 06:04:00,
2013-07-14 02:09:00,67.6,66.2,27.99,West,270,0.0,0.0,95,0.00,,---,0.00,VWS V14.01,2013-07-14 06:09:00,
2013-07-14 02:14:00,67.5,66.0,27.99,West,270,0.0,0.0,95,0.00,,---,0.00,VWS V14.01,2013-07-14 06:14:00,
2013-07-14 02:19:00,67.5,66.0,27.99,West,270,0.0,0.0,95,0.00,,---,0.00,VWS V14.01,2013-07-14 06:19:00,
2013-07-14 02:24:00,67.3,65.8,27.99,West,270,0.0,0.0,95,0.00,,---,0.00,VWS V14.01,2013-07-14 06:24:00,
2013-07-14 02:29:00,67.3,65.8,27.99,West,270,0.0,0.0,95,0.00,,---,0.00,VWS V14.01,2013-07-14 06:29:00,
2013-07-14 02:34:00,67.1,65.6,27.99,West,270,0.0,0.0,95,0.00,,---,0.00,VWS V14.01,2013-07-14 06:34:00,
2013-07-14 02:39:00,67.1,65.6,27.99,West,270,0.0,0.0,95,0.00,,---,0.00,VWS V14.01,2013-07-14 06:39:00,
2013-07-14 02:44:00,67.1,65.6,27.99,West,270,0.0,0.0,95,0.00,,---,0.00,VWS V14.01,2013-07-14 06:44:00,
2013-07-14 02:49:00,67.1,65.6,27.99,WSW,248,0.0,0.0,95,0.00,,---,0.00,VWS V14.01,2013-07-14 06:49:00,
2013-07-14 02:55:00,66.9,65.4,27.99,WSW,248,0.0,0.0,95,0.00,,---,0.00,VWS V14.01,2013-07-14 06:55:00,
2013-07-14 03:00:00,66.9,65.4,27.99,WSW,248,0.0,0.0,95,0.00,,---,0.00,VWS V14.01,2013-07-14 07:00:00,
2013-07-14 03:05:00,66.7,65.3,27.99,WSW,248,0.0,0.0,95,0.00,,---,0.00,VWS V14.01,2013-07-14 07:05:00,
2013-07-14 03:10:00,66.7,65.3,27.99,WSW,248,0.0,0.0,95,0.00,,---,0.00,VWS V14.01,2013-07-14 07:10:00,
2013-07-14 03:15:00,66.7,65.3,27.99,WSW,248,0.0,0.0,95,0.00,,---,0.00,VWS V14.01,2013-07-14 07:15:00,
2013-07-14 03:20:00,66.6,65.1,27.99,WSW,248,0.0,0.0,95,0.00,,---,0.00,VWS V14.01,2013-07-14 07:20:00,
2013-07-14 03:25:00,66.6,65.1,27.99,WSW,248,0.0,0.0,95,0.00,,---,0.00,VWS V14.01,2013-07-14 07:25:00,
2013-07-14 03:30:00,66.4,65.2,27.99,WSW,248,0.0,0.0,96,0.00,,---,0.00,VWS V14.01,2013-07-14 07:30:00,
2013-07-14 03:35:00,66.4,65.2,27.99,WSW,248,0.0,0.0,96,0.00,,---,0.00,VWS V14.01,2013-07-14 07:35:00,
2013-07-14 03:40:00,66.4,65.2,27.99,WNW,292,0.0,0.0,96,0.00,,---,0.00,VWS V14.01,2013-07-14 07:40:00,
2013-07-14 03:45:00,66.4,65.2,27.99,WNW,292,0.0,0.0,96,0.00,,---,0.00,VWS V14.01,2013-07-14 07:45:00,
2013-07-14 03:50:00,66.4,65.2,27.99,WNW,292,0.0,0.0,96,0.00,,---,0.00,VWS V14.01,2013-07-14 07:50:00,
2013-07-14 03:56:00,66.4,65.2,27.99,WNW,292,0.0,0.0,96,0.00,,---,0.00,VWS V14.01,2013-07-14 07:56:00,
2013-07-14 04:01:00,66.4,65.2,27.99,WNW,292,0.0,0.0,96,0.00,,---,0.00,VWS V14.01,2013-07-14 08:01:00,
2013-07-14 04:06:00,66.4,65.2,27.99,WNW,292,0.0,0.0,96,0.00,,---,0.00,VWS V14.01,2013-07-14 08:06:00,
2013-07-14 04:11:00,66.7,65.6,27.99,WNW,292,0.0,0.0,96,0.00,,---,0.00,VWS V14.01,2013-07-14 08:11:00,
2013-07-14 04:16:00,66.9,65.8,27.99,WNW,292,0.0,0.0,96,0.00,,---,0.00,VWS V14.01,2013-07-14 08:16:00,
2013-07-14 04:21:00,66.9,65.8,27.99,WNW,292,0.0,0.0,96,0.00,,---,0.00,VWS V14.01,2013-07-14 08:21:00,
2013-07-14 04:26:00,67.1,65.9,27.99,WNW,292,0.0,0.0,96,0.00,,---,0.00,VWS V14.01,2013-07-14 08:26:00,
2013-07-14 04:31:00,67.3,66.1,27.99,West,270,0.0,0.0,96,0.00,,---,0.00,VWS V14.01,2013-07-14 08:31:00,
2013-07-14 04:36:00,67.3,66.1,27.99,West,270,0.0,0.0,96,0.00,,---,0.00,VWS V14.01,2013-07-14 08:36:00,
2013-07-14 04:41:00,67.3,66.1,27.99,WSW,248,0.0,0.0,96,0.00,,---,0.00,VWS V14.01,2013-07-14 08:41:00,
2013-07-14 04:46:00,67.3,66.1,27.99,WSW,248,0.0,0.0,96,0.00,,---,0.00,VWS V14.01,2013-07-14 08:46:00,
2013-07-14 04:51:00,67.3,66.1,27.99,WSW,248,0.0,0.0,96,0.00,,---,0.00,VWS V14.01,2013-07-14 08:51:00,
2013-07-14 04:57:00,67.1,65.9,27.99,WSW,248,0.0,0.0,96,0.00,,---,0.00,VWS V14.01,2013-07-14 08:57:00,
2013-07-14 05:02:00,67.1,65.9,27.99,WSW,248,0.0,0.0,96,0.00,,---,0.00,VWS V14.01,2013-07-14 09:02:00,
2013-07-14 05:07:00,67.3,66.1,27.99,WSW,248,0.0,0.0,96,0.00,,---,0.00,VWS V14.01,2013-07-14 09:07:00,
2013-07-14 05:12:00,67.3,66.1,27.99,WSW,248,0.0,0.0,96,0.00,,---,0.00,VWS V14.01,2013-07-14 09:12:00,
2013-07-14 05:17:00,67.3,66.1,27.99,West,270,0.0,0.0,96,0.00,,---,0.00,VWS V14.01,2013-07-14 09:17:00,
2013-07-14 05:22:00,67.5,66.3,28.02,WNW,292,0.0,0.0,96,0.00,,---,0.00,VWS V14.01,2013-07-14 09:22:00,
2013-07-14 05:27:00,67.5,66.3,28.02,North,0,0.0,1.3,96,0.00,,---,0.00,VWS V14.01,2013-07-14 09:27:00,
2013-07-14 05:32:00,67.3,66.1,28.02,NNW,338,0.0,0.0,96,0.00,,---,0.00,VWS V14.01,2013-07-14 09:32:00,
2013-07-14 05:37:00,67.3,66.1,28.02,NNW,338,1.3,2.5,96,0.00,,---,0.00,VWS V14.01,2013-07-14 09:37:00,
2013-07-14 05:42:00,67.3,66.1,28.02,WNW,292,0.0,0.9,96,0.00,,---,0.00,VWS V14.01,2013-07-14 09:42:00,
2013-07-14 05:47:00,67.1,65.9,28.02,East,90,0.0,0.0,96,0.00,,---,0.00,VWS V14.01,2013-07-14 09:47:00,
2013-07-14 05:52:00,67.1,65.9,28.02,WNW,292,0.0,0.0,96,0.00,,---,0.00,VWS V14.01,2013-07-14 09:52:00,
2013-07-14 05:57:00,66.9,65.8,28.02,NNE,22,0.0,0.0,96,0.00,,---,0.00,VWS V14.01,2013-07-14 09:57:00,
2013-07-14 06:02:00,66.9,65.8,28.02,West,270,0.0,0.0,96,0.00,,---,0.00,VWS V14.01,2013-07-14 10:02:00,
2013-07-14 06:07:00,66.9,65.8,28.02,WSW,248,0.0,0.0,96,0.00,,---,0.00,VWS V14.01,2013-07-14 10:07:00,
2013-07-14 06:12:00,66.9,65.8,28.02,WSW,248,0.0,0.0,96,0.00,,---,0.00,VWS V14.01,2013-07-14 10:12:00,
2013-07-14 06:13:00,66.9,65.8,28.02,WSW,248,0.0,0.0,96,0.00,,---,0.00,VWS V14.01,2013-07-14 10:13:00,
2013-07-14 06:18:00,66.9,65.8,28.02,NE,45,0.0,0.0,96,0.00,,---,0.00,VWS V14.01,2013-07-14 10:18:00,
2013-07-14 06:23:00,66.7,65.6,28.02,NE,45,0.0,0.0,96,0.00,,---,0.00,VWS V14.01,2013-07-14 10:23:00,
2013-07-14 06:28:00,66.7,65.6,28.02,NW,315,0.0,1.3,96,0.00,,---,0.00,VWS V14.01,2013-07-14 10:28:00,
2013-07-14 06:34:00,66.7,65.6,28.02,East,90,0.0,0.0,96,0.00,,---,0.00,VWS V14.01,2013-07-14 10:34:00,
2013-07-14 06:39:00,66.9,65.8,28.02,ENE,68,0.0,0.0,96,0.00,,---,0.00,VWS V14.01,2013-07-14 10:39:00,
2013-07-14 06:44:00,66.7,65.6,28.02,NNE,22,0.0,0.0,96,0.00,,---,0.00,VWS V14.01,2013-07-14 10:44:00,
2013-07-14 06:45:00,66.7,65.6,28.02,NNE,22,0.0,0.0,96,0.00,,---,0.00,VWS V14.01,2013-07-14 10:45:00,
2013-07-14 06:50:00,66.9,65.8,28.02,NW,315,0.0,0.0,96,0.00,,---,0.00,VWS V14.01,2013-07-14 10:50:00,
2013-07-14 06:55:00,66.9,65.8,28.02,NW,315,0.0,0.0,96,0.00,,---,0.00,VWS V14.01,2013-07-14 10:55:00,
2013-07-14 07:00:00,66.9,65.8,28.02,NNW,338,0.0,0.0,96,0.00,,---,0.00,VWS V14.01,2013-07-14 11:00:00,
2013-07-14 07:05:00,66.9,66.0,28.02,WNW,292,0.0,0.0,97,0.00,,---,0.00,VWS V14.01,2013-07-14 11:05:00,
2013-07-14 07:10:00,67.1,65.9,28.02,NE,45,0.0,0.0,96,0.00,,---,0.00,VWS V14.01,2013-07-14 11:10:00,
2013-07-14 07:12:00,67.1,65.9,28.02,NE,45,0.0,0.0,96,0.00,,---,0.00,VWS V14.01,2013-07-14 11:12:00,
2013-07-14 07:17:00,67.1,66.2,28.02,NNW,338,0.9,0.9,97,0.00,,---,0.00,VWS V14.01,2013-07-14 11:17:00,
2013-07-14 07:22:00,67.1,65.9,28.02,WNW,292,0.0,0.0,96,0.00,,---,0.00,VWS V14.01,2013-07-14 11:22:00,
2013-07-14 07:27:00,67.1,65.9,28.02,NW,315,0.0,1.1,96,0.00,,---,0.00,VWS V14.01,2013-07-14 11:27:00,
2013-07-14 07:32:00,67.1,65.9,28.02,NW,315,0.0,0.0,96,0.00,,---,0.00,VWS V14.01,2013-07-14 11:32:00,
2013-07-14 07:38:00,67.3,66.1,28.02,SE,135,1.1,1.1,96,0.00,,---,0.00,VWS V14.01,2013-07-14 11:38:00,
2013-07-14 07:43:00,67.5,66.6,28.02,East,90,0.0,0.0,97,0.00,,---,0.00,VWS V14.01,2013-07-14 11:43:00,
2013-07-14 07:48:00,67.6,66.8,28.02,NE,45,0.0,0.0,97,0.00,,---,0.00,VWS V14.01,2013-07-14 11:48:00,
2013-07-14 07:53:00,67.8,66.9,28.05,NNW,338,0.0,0.0,97,0.00,,---,0.00,VWS V14.01,2013-07-14 11:53:00,
2013-07-14 07:58:00,68.0,66.8,28.05,NE,45,0.0,0.0,96,0.00,,---,0.00,VWS V14.01,2013-07-14 11:58:00,
2013-07-14 08:03:00,68.2,67.0,28.05,ENE,68,0.0,0.0,96,0.00,,---,0.00,VWS V14.01,2013-07-14 12:03:00,
2013-07-14 08:08:00,68.2,67.0,28.05,WNW,292,0.0,1.6,96,0.00,,---,0.00,VWS V14.01,2013-07-14 12:08:00,
2013-07-14 08:13:00,68.2,67.0,28.05,ENE,68,0.0,0.0,96,0.00,,---,0.00,VWS V14.01,2013-07-14 12:13:00,
2013-07-14 08:18:00,68.2,67.0,28.05,WNW,292,1.1,1.3,96,0.00,,---,0.00,VWS V14.01,2013-07-14 12:18:00,
2013-07-14 08:23:00,68.2,67.0,28.05,North,0,0.0,2.7,96,0.00,,---,0.00,VWS V14.01,2013-07-14 12:23:00,
2013-07-14 08:28:00,68.4,67.2,28.05,SW,225,1.1,1.1,96,0.00,,---,0.00,VWS V14.01,2013-07-14 12:28:00,
2013-07-14 08:34:00,68.4,67.2,28.05,ENE,68,0.0,0.0,96,0.00,,---,0.00,VWS V14.01,2013-07-14 12:34:00,
2013-07-14 08:39:00,68.4,67.2,28.05,NNE,22,0.0,0.0,96,0.00,,---,0.00,VWS V14.01,2013-07-14 12:39:00,
2013-07-14 08:44:00,68.5,67.4,28.05,East,90,0.0,0.9,96,0.00,,---,0.00,VWS V14.01,2013-07-14 12:44:00,
2013-07-14 08:49:00,68.5,67.4,28.05,NNE,22,0.0,0.0,96,0.00,,---,0.00,VWS V14.01,2013-07-14 12:49:00,
2013-07-14 08:54:00,68.5,67.4,28.05,NE,45,0.0,0.0,96,0.00,,---,0.00,VWS V14.01,2013-07-14 12:54:00,
2013-07-14 08:59:00,68.7,67.5,28.05,NE,45,0.0,0.0,96,0.00,,---,0.00,VWS V14.01,2013-07-14 12:59:00,
2013-07-14 09:04:00,68.9,67.7,28.05,North,0,0.0,0.0,96,0.00,,---,0.00,VWS V14.01,2013-07-14 13:04:00,
2013-07-14 09:09:00,69.1,67.9,28.08,NNE,22,0.0,0.9,96,0.00,,---,0.00,VWS V14.01,2013-07-14 13:09:00,
2013-07-14 09:14:00,69.1,67.9,28.08,WNW,292,0.0,1.1,96,0.00,,---,0.00,VWS V14.01,2013-07-14 13:14:00,
2013-07-14 09:19:00,69.3,68.1,28.08,NE,45,0.0,0.0,96,0.00,,---,0.00,VWS V14.01,2013-07-14 13:19:00,
2013-07-14 09:24:00,69.3,68.1,28.05,NE,45,1.1,1.1,96,0.00,,---,0.00,VWS V14.01,2013-07-14 13:24:00,
2013-07-14 09:30:00,69.3,68.1,28.05,NW,315,0.0,2.7,96,0.00,,---,0.00,VWS V14.01,2013-07-14 13:30:00,
2013-07-14 09:35:00,69.6,68.4,28.05,NW,315,0.0,1.1,96,0.00,,---,0.00,VWS V14.01,2013-07-14 13:35:00,
2013-07-14 09:40:00,70.2,68.7,28.08,East,90,0.0,0.9,95,0.00,,---,0.00,VWS V14.01,2013-07-14 13:40:00,
2013-07-14 09:45:00,70.3,68.8,28.08,East,90,0.0,0.0,95,0.00,,---,0.00,VWS V14.01,2013-07-14 13:45:00,
2013-07-14 09:50:00,70.7,69.2,28.08,East,90,0.0,0.0,95,0.00,,---,0.00,VWS V14.01,2013-07-14 13:50:00,
2013-07-14 09:55:00,70.9,69.1,28.08,East,90,1.6,1.6,94,0.00,,---,0.00,VWS V14.01,2013-07-14 13:55:00,
2013-07-14 10:00:00,70.9,69.1,28.08,SE,135,0.0,0.0,94,0.00,,---,0.00,VWS V14.01,2013-07-14 14:00:00,
2013-07-14 10:05:00,71.8,70.0,28.08,WNW,292,0.0,0.0,94,0.00,,---,0.00,VWS V14.01,2013-07-14 14:05:00,
2013-07-14 10:10:00,71.4,69.6,28.08,North,0,0.0,0.0,94,0.00,,---,0.00,VWS V14.01,2013-07-14 14:10:00,
2013-07-14 10:15:00,71.4,69.3,28.08,NW,315,0.0,0.0,93,0.00,,---,0.00,VWS V14.01,2013-07-14 14:15:00,
2013-07-14 10:20:00,71.2,69.1,28.08,SSE,158,0.0,0.9,93,0.00,,---,0.00,VWS V14.01,2013-07-14 14:20:00,
2013-07-14 10:25:00,71.4,69.3,28.08,North,0,0.0,1.6,93,0.00,,---,0.00,VWS V14.01,2013-07-14 14:25:00,
2013-07-14 10:31:00,71.8,69.3,28.08,SSW,202,0.9,2.2,92,0.00,,---,0.00,VWS V14.01,2013-07-14 14:31:00,
2013-07-14 10:36:00,71.8,69.3,28.08,SE,135,0.0,1.3,92,0.00,,---,0.00,VWS V14.01,2013-07-14 14:36:00,
2013-07-14 10:41:00,72.1,69.7,28.08,SSE,158,0.0,0.0,92,0.00,,---,0.00,VWS V14.01,2013-07-14 14:41:00,
2013-07-14 10:46:00,73.4,70.6,28.08,ESE,112,2.7,2.7,91,0.00,,---,0.00,VWS V14.01,2013-07-14 14:46:00,
2013-07-14 10:51:00,73.9,70.5,28.08,WSW,248,0.0,0.0,89,0.00,,---,0.00,VWS V14.01,2013-07-14 14:51:00,
2013-07-14 10:56:00,73.6,70.1,28.08,East,90,0.0,0.0,89,0.00,,---,0.00,VWS V14.01,2013-07-14 14:56:00,
2013-07-14 11:01:00,74.8,71.1,28.08,NW,315,0.0,0.0,88,0.00,,---,0.00,VWS V14.01,2013-07-14 15:01:00,
2013-07-14 11:06:00,75.6,71.4,28.08,SSE,158,0.0,0.0,87,0.00,,---,0.00,VWS V14.01,2013-07-14 15:06:00,
2013-07-14 11:11:00,76.3,71.1,28.08,NNW,338,0.9,3.4,84,0.00,,---,0.00,VWS V14.01,2013-07-14 15:11:00,
2013-07-14 11:16:00,76.3,71.4,28.08,ESE,112,0.0,0.0,85,0.00,,---,0.00,VWS V14.01,2013-07-14 15:16:00,
2013-07-14 11:21:00,75.7,70.6,28.08,East,90,0.0,0.9,84,0.00,,---,0.00,VWS V14.01,2013-07-14 15:21:00,
2013-07-14 11:27:00,75.0,69.9,28.08,North,0,0.0,0.0,84,0.00,,---,0.00,VWS V14.01,2013-07-14 15:27:00,
2013-07-14 11:32:00,74.1,69.0,28.08,North,0,0.0,0.9,84,0.00,,---,0.00,VWS V14.01,2013-07-14 15:32:00,
2013-07-14 11:37:00,73.6,68.4,28.08,NNW,338,1.1,2.9,84,0.00,,---,0.00,VWS V14.01,2013-07-14 15:37:00,
2013-07-14 11:42:00,73.2,68.8,28.08,WNW,292,0.0,0.0,86,0.00,,---,0.00,VWS V14.01,2013-07-14 15:42:00,
2013-07-14 11:47:00,72.9,68.4,28.08,ENE,68,0.0,0.0,86,0.00,,---,0.00,VWS V14.01,2013-07-14 15:47:00,
2013-07-14 11:52:00,72.7,68.6,28.08,SW,225,0.0,0.0,87,0.00,,---,0.00,VWS V14.01,2013-07-14 15:52:00,
2013-07-14 11:57:00,72.5,68.8,28.08,North,0,0.0,1.1,88,0.00,,---,0.00,VWS V14.01,2013-07-14 15:57:00,
2013-07-14 12:02:00,72.3,68.2,28.08,ENE,68,0.0,0.0,87,0.00,,---,0.00,VWS V14.01,2013-07-14 16:02:00,
2013-07-14 12:07:00,72.3,68.6,28.08,NNW,338,1.6,1.6,88,0.00,,---,0.00,VWS V14.01,2013-07-14 16:07:00,
2013-07-14 12:12:00,72.3,68.9,28.08,WNW,292,0.0,0.0,89,0.00,,---,0.00,VWS V14.01,2013-07-14 16:12:00,
2013-07-14 12:17:00,72.7,69.6,28.08,NNE,22,0.0,0.0,90,0.00,,---,0.00,VWS V14.01,2013-07-14 16:17:00,
2013-07-14 12:23:00,73.2,70.1,28.08,WNW,292,2.0,2.0,90,0.00,,---,0.00,VWS V14.01,2013-07-14 16:23:00,
2013-07-14 12:28:00,73.4,70.0,28.08,East,90,0.0,1.6,89,0.00,,---,0.00,VWS V14.01,2013-07-14 16:28:00,
2013-07-14 12:33:00,74.3,70.8,28.08,ESE,112,1.3,1.3,89,0.00,,---,0.00,VWS V14.01,2013-07-14 16:33:00,
2013-07-14 12:38:00,76.3,72.5,28.08,SW,225,0.0,1.1,88,0.00,,---,0.00,VWS V14.01,2013-07-14 16:38:00,
2013-07-14 12:43:00,76.6,72.1,28.08,SSW,202,1.3,3.1,86,0.00,,---,0.00,VWS V14.01,2013-07-14 16:43:00,
2013-07-14 12:48:00,77.0,71.4,28.08,South,180,0.0,0.0,83,0.00,,---,0.00,VWS V14.01,2013-07-14 16:48:00,
2013-07-14 12:53:00,77.2,71.3,28.08,East,90,0.0,1.6,82,0.00,,---,0.00,VWS V14.01,2013-07-14 16:53:00,
2013-07-14 12:58:00,76.8,70.9,28.08,ESE,112,0.0,0.0,82,0.00,,---,0.00,VWS V14.01,2013-07-14 16:58:00,
2013-07-14 13:03:00,76.3,70.4,28.08,ESE,112,0.0,1.6,82,0.00,,---,0.00,VWS V14.01,2013-07-14 17:03:00,
2013-07-14 13:08:00,75.9,70.0,28.08,West,270,0.0,0.0,82,0.00,,---,0.00,VWS V14.01,2013-07-14 17:08:00,
2013-07-14 13:13:00,75.6,70.0,28.08,ESE,112,1.3,1.6,83,0.00,,---,0.00,VWS V14.01,2013-07-14 17:13:00,
2013-07-14 13:18:00,74.8,69.7,28.08,NW,315,2.5,2.5,84,0.00,,---,0.00,VWS V14.01,2013-07-14 17:18:00,
2013-07-14 13:23:00,74.3,69.5,28.08,NNW,338,0.0,0.0,85,0.00,,---,0.00,VWS V14.01,2013-07-14 17:23:00,
2013-07-14 13:28:00,73.9,69.5,28.08,WSW,248,0.9,0.9,86,0.00,,---,0.00,VWS V14.01,2013-07-14 17:28:00,
2013-07-14 13:33:00,73.6,69.5,28.08,SSW,202,2.5,2.5,87,0.00,,---,0.00,VWS V14.01,2013-07-14 17:33:00,
2013-07-14 13:38:00,73.2,69.8,28.08,East,90,0.0,0.0,89,0.00,,---,0.00,VWS V14.01,2013-07-14 17:38:00,
2013-07-14 13:43:00,73.9,70.8,28.08,South,180,0.0,0.0,90,0.00,,---,0.00,VWS V14.01,2013-07-14 17:43:00,
2013-07-14 13:48:00,74.1,71.0,28.08,South,180,0.0,0.0,90,0.00,,---,0.00,VWS V14.01,2013-07-14 17:48:00,
2013-07-14 13:53:00,73.9,70.8,28.08,South,180,0.0,0.0,90,0.00,,---,0.00,VWS V14.01,2013-07-14 17:53:00,
2013-07-14 13:58:00,73.6,70.5,28.08,SE,135,0.0,0.0,90,0.00,,---,0.00,VWS V14.01,2013-07-14 17:58:00,
2013-07-14 14:03:00,73.8,71.0,28.08,SSE,158,1.3,1.6,91,0.00,,---,0.00,VWS V14.01,2013-07-14 18:03:00,
2013-07-14 14:09:00,74.3,71.5,28.08,East,90,0.0,1.3,91,0.00,,---,0.00,VWS V14.01,2013-07-14 18:09:00,
2013-07-14 14:14:00,76.3,73.1,28.08,South,180,0.0,0.0,90,0.00,,---,0.00,VWS V14.01,2013-07-14 18:14:00,
2013-07-14 14:19:00,77.5,74.1,28.08,SSW,202,0.0,0.9,89,0.00,,---,0.00,VWS V14.01,2013-07-14 18:19:00,
2013-07-14 14:24:00,78.1,74.2,28.08,SSW,202,0.0,1.1,88,0.00,,---,0.00,VWS V14.01,2013-07-14 18:24:00,
2013-07-14 14:29:00,79.3,74.8,28.08,East,90,0.9,0.9,86,0.00,,---,0.00,VWS V14.01,2013-07-14 18:29:00,
2013-07-14 14:34:00,78.8,73.9,28.08,East,90,1.1,1.6,85,0.00,,---,0.00,VWS V14.01,2013-07-14 18:34:00,
2013-07-14 14:39:00,77.9,72.3,28.08,ESE,112,0.0,0.0,83,0.00,,---,0.00,VWS V14.01,2013-07-14 18:39:00,
2013-07-14 14:44:00,77.4,72.2,28.08,ENE,68,0.0,0.9,84,0.00,,---,0.00,VWS V14.01,2013-07-14 18:44:00,
2013-07-14 14:49:00,76.1,71.6,28.08,SSW,202,0.0,0.0,86,0.00,,---,0.00,VWS V14.01,2013-07-14 18:49:00,
2013-07-14 14:54:00,75.4,71.2,28.08,ESE,112,1.1,1.1,87,0.00,,---,0.00,VWS V14.01,2013-07-14 18:54:00,
2013-07-14 14:59:00,75.6,71.8,28.08,SSE,158,0.0,0.0,88,0.00,,---,0.00,VWS V14.01,2013-07-14 18:59:00,
2013-07-14 15:04:00,75.9,72.4,28.08,SSE,158,1.1,1.1,89,0.00,,---,0.00,VWS V14.01,2013-07-14 19:04:00,
2013-07-14 15:09:00,77.4,73.5,28.08,SE,135,0.0,0.0,88,0.00,,---,0.00,VWS V14.01,2013-07-14 19:09:00,
2013-07-14 15:14:00,78.4,74.6,28.08,SE,135,2.0,2.0,88,0.00,,---,0.00,VWS V14.01,2013-07-14 19:14:00,
2013-07-14 15:19:00,78.4,73.9,28.08,West,270,0.0,0.0,86,0.00,,---,0.00,VWS V14.01,2013-07-14 19:19:00,
2013-07-14 15:24:00,78.8,73.9,28.08,West,270,0.0,0.0,85,0.00,,---,0.00,VWS V14.01,2013-07-14 19:24:00,
2013-07-14 15:29:00,78.1,73.2,28.08,East,90,2.9,2.9,85,0.00,,---,0.00,VWS V14.01,2013-07-14 19:29:00,
2013-07-14 15:35:00,78.1,72.9,28.08,East,90,0.0,0.0,84,0.00,,---,0.00,VWS V14.01,2013-07-14 19:35:00,
2013-07-14 15:40:00,78.8,73.2,28.08,NNW,338,0.0,2.0,83,0.00,,---,0.00,VWS V14.01,2013-07-14 19:40:00,
2013-07-14 15:45:00,78.8,73.2,28.08,ESE,112,0.0,0.0,83,0.00,,---,0.00,VWS V14.01,2013-07-14 19:45:00,
2013-07-14 15:50:00,78.8,73.2,28.08,SSE,158,0.0,1.1,83,0.00,,---,0.00,VWS V14.01,2013-07-14 19:50:00,
2013-07-14 15:55:00,78.8,73.2,28.08,SSE,158,0.0,1.1,83,0.00,,---,0.00,VWS V14.01,2013-07-14 19:55:00,
2013-07-14 16:00:00,78.6,73.0,28.08,SE,135,1.3,1.3,83,0.00,,---,0.00,VWS V14.01,2013-07-14 20:00:00,
2013-07-14 16:05:00,78.6,72.3,28.08,South,180,1.1,1.1,81,0.00,,---,0.00,VWS V14.01,2013-07-14 20:05:00,
2013-07-14 16:10:00,79.0,73.0,28.05,South,180,0.0,0.0,82,0.00,,---,0.00,VWS V14.01,2013-07-14 20:10:00,
2013-07-14 16:15:00,79.2,73.6,28.05,ESE,112,2.0,4.0,83,0.00,,---,0.00,VWS V14.01,2013-07-14 20:15:00,
2013-07-14 16:20:00,79.9,73.9,28.05,SSE,158,0.0,0.0,82,0.00,,---,0.00,VWS V14.01,2013-07-14 20:20:00,
2013-07-14 16:25:00,80.1,73.3,28.05,SE,135,2.2,2.2,80,0.00,,---,0.00,VWS V14.01,2013-07-14 20:25:00,
2013-07-14 16:30:00,80.4,73.7,28.05,South,180,0.0,1.3,80,0.00,,---,0.00,VWS V14.01,2013-07-14 20:30:00,
2013-07-14 16:35:00,80.6,73.5,28.05,SSE,158,1.3,1.3,79,0.00,,---,0.00,VWS V14.01,2013-07-14 20:35:00,
2013-07-14 16:40:00,80.6,72.3,28.05,East,90,0.9,0.9,76,0.00,,---,0.00,VWS V14.01,2013-07-14 20:40:00,
2013-07-14 16:45:00,81.3,73.0,28.05,WNW,292,0.9,1.1,76,0.00,,---,0.00,VWS V14.01,2013-07-14 20:45:00,
2013-07-14 16:50:00,81.5,73.2,28.05,SE,135,0.0,2.5,76,0.00,,---,0.00,VWS V14.01,2013-07-14 20:50:00,
2013-07-14 16:55:00,81.5,72.8,28.05,SSE,158,0.0,0.0,75,0.00,,---,0.00,VWS V14.01,2013-07-14 20:55:00,
2013-07-14 17:00:00,81.3,72.6,28.05,ESE,112,1.3,1.3,75,0.00,,---,0.00,VWS V14.01,2013-07-14 21:00:00,
2013-07-14 17:05:00,80.1,71.0,28.05,East,90,0.0,1.6,74,0.00,,---,0.00,VWS V14.01,2013-07-14 21:05:00,
2013-07-14 17:10:00,79.0,70.8,28.05,SSE,158,0.0,0.0,76,0.00,,---,0.00,VWS V14.01,2013-07-14 21:10:00,
2013-07-14 17:15:00,78.1,70.3,28.05,East,90,1.3,1.3,77,0.00,,---,0.00,VWS V14.01,2013-07-14 21:15:00,
2013-07-14 17:21:00,77.0,69.6,28.05,WNW,292,0.0,2.0,78,0.00,,---,0.00,VWS V14.01,2013-07-14 21:21:00,
2013-07-14 17:26:00,76.8,69.8,28.05,WNW,292,0.0,0.9,79,0.00,,---,0.00,VWS V14.01,2013-07-14 21:26:00,
2013-07-14 17:31:00,77.0,70.0,28.05,South,180,1.1,2.2,79,0.00,,---,0.00,VWS V14.01,2013-07-14 21:31:00,
2013-07-14 17:36:00,76.6,70.0,28.05,ESE,112,0.0,1.1,80,0.00,,---,0.00,VWS V14.01,2013-07-14 21:36:00,
2013-07-14 17:41:00,76.5,70.2,28.05,SSW,202,0.0,0.0,81,0.00,,---,0.00,VWS V14.01,2013-07-14 21:41:00,
2013-07-14 17:46:00,76.6,70.7,28.05,WNW,292,1.3,1.3,82,0.00,,---,0.00,VWS V14.01,2013-07-14 21:46:00,
2013-07-14 17:51:00,77.0,71.1,28.05,SE,135,0.0,2.0,82,0.00,,---,0.00,VWS V14.01,2013-07-14 21:51:00,
2013-07-14 17:56:00,77.2,71.3,28.05,East,90,0.0,0.9,82,0.00,,---,0.00,VWS V14.01,2013-07-14 21:56:00,
2013-07-14 18:01:00,77.2,71.6,28.05,East,90,1.6,1.6,83,0.00,,---,0.00,VWS V14.01,2013-07-14 22:01:00,
2013-07-14 18:06:00,77.2,71.3,28.05,East,90,0.0,3.4,82,0.00,,---,0.00,VWS V14.01,2013-07-14 22:06:00,
2013-07-14 18:11:00,77.2,71.6,28.05,ESE,112,0.0,1.6,83,0.00,,---,0.00,VWS V14.01,2013-07-14 22:11:00,
2013-07-14 18:16:00,77.2,71.3,28.05,NNE,22,0.0,0.9,82,0.00,,---,0.00,VWS V14.01,2013-07-14 22:16:00,
2013-07-14 18:22:00,77.2,71.3,28.05,NE,45,0.9,1.3,82,0.00,,---,0.00,VWS V14.01,2013-07-14 22:22:00,
2013-07-14 18:27:00,77.0,70.7,28.05,SSW,202,0.9,2.0,81,0.00,,---,0.00,VWS V14.01,2013-07-14 22:27:00,
2013-07-14 18:32:00,77.0,71.1,28.05,WNW,292,0.0,1.1,82,0.00,,---,0.00,VWS V14.01,2013-07-14 22:32:00,
2013-07-14 18:37:00,77.0,70.7,28.05,NE,45,2.7,3.1,81,0.00,,---,0.00,VWS V14.01,2013-07-14 22:37:00,
2013-07-14 18:42:00,77.4,71.4,28.05,NW,315,1.1,2.7,82,0.00,,---,0.00,VWS V14.01,2013-07-14 22:42:00,
2013-07-14 18:47:00,77.4,71.4,28.05,SSE,158,0.0,0.0,82,0.00,,---,0.00,VWS V14.01,2013-07-14 22:47:00,
2013-07-14 18:52:00,77.0,71.4,28.05,SE,135,0.0,0.0,83,0.00,,---,0.00,VWS V14.01,2013-07-14 22:52:00,
2013-07-14 18:57:00,76.5,71.6,28.05,East,90,0.0,0.0,85,0.00,,---,0.00,VWS V14.01,2013-07-14 22:57:00,
2013-07-14 19:02:00,75.6,70.7,28.05,North,0,0.9,0.9,85,0.00,,---,0.00,VWS V14.01,2013-07-14 23:02:00,
2013-07-14 19:07:00,74.7,70.5,28.05,WNW,292,0.0,0.0,87,0.00,,---,0.00,VWS V14.01,2013-07-14 23:07:00,
2013-07-14 19:12:00,74.1,70.3,28.05,East,90,0.0,0.0,88,0.00,,---,0.00,VWS V14.01,2013-07-14 23:12:00,
2013-07-14 19:18:00,73.6,69.8,28.05,NE,45,0.0,0.0,88,0.00,,---,0.00,VWS V14.01,2013-07-14 23:18:00,
2013-07-14 19:23:00,73.4,69.6,28.05,East,90,0.0,1.3,88,0.00,,---,0.00,VWS V14.01,2013-07-14 23:23:00,
2013-07-14 19:28:00,73.0,69.9,28.05,ESE,112,1.6,1.6,90,0.00,,---,0.00,VWS V14.01,2013-07-14 23:28:00,
2013-07-14 19:33:00,72.9,69.8,28.05,East,90,0.0,0.0,90,0.00,,---,0.00,VWS V14.01,2013-07-14 23:33:00,
2013-07-14 19:38:00,72.7,69.6,28.05,East,90,0.9,2.5,90,0.00,,---,0.00,VWS V14.01,2013-07-14 23:38:00,
2013-07-14 19:43:00,72.7,69.6,28.05,East,90,0.0,0.9,90,0.00,,---,0.00,VWS V14.01,2013-07-14 23:43:00,
2013-07-14 19:48:00,72.7,69.9,28.05,North,0,0.0,0.0,91,0.00,,---,0.00,VWS V14.01,2013-07-14 23:48:00,
2013-07-14 19:53:00,72.5,69.7,28.08,North,0,0.0,2.7,91,0.00,,---,0.00,VWS V14.01,2013-07-14 23:53:00,
2013-07-14 19:58:00,72.5,69.7,28.08,East,90,0.9,0.9,91,0.00,,---,0.00,VWS V14.01,2013-07-14 23:58:00,
2013-07-14 20:03:00,72.3,69.6,28.08,WNW,292,0.0,0.0,91,0.00,,---,0.00,VWS V14.01,2013-07-15 00:03:00,
2013-07-14 20:08:00,72.1,69.4,28.08,East,90,0.0,0.0,91,0.00,,---,0.00,VWS V14.01,2013-07-15 00:08:00,
2013-07-14 20:13:00,72.1,69.4,28.08,East,90,0.0,0.0,91,0.00,,---,0.00,VWS V14.01,2013-07-15 00:13:00,
2013-07-14 20:14:00,72.0,69.5,28.08,East,90,0.0,0.0,92,0.00,,---,0.00,VWS V14.01,2013-07-15 00:14:00,
2013-07-14 20:19:00,71.8,69.7,28.08,East,90,0.9,3.8,93,0.00,,---,0.00,VWS V14.01,2013-07-15 00:19:00,
2013-07-14 20:24:00,71.4,69.6,28.08,SSE,158,1.1,1.1,94,0.00,,---,0.00,VWS V14.01,2013-07-15 00:24:00,
2013-07-14 20:29:00,71.2,69.4,28.08,ESE,112,0.0,1.1,94,0.00,,---,0.00,VWS V14.01,2013-07-15 00:29:00,
2013-07-14 20:34:00,71.1,69.2,28.08,ESE,112,2.7,2.7,94,0.00,,---,0.00,VWS V14.01,2013-07-15 00:34:00,
2013-07-14 20:39:00,70.9,69.1,28.08,East,90,0.0,1.1,94,0.00,,---,0.00,VWS V14.01,2013-07-15 00:39:00,
2013-07-14 20:44:00,70.7,68.9,28.08,ESE,112,0.9,1.3,94,0.00,,---,0.00,VWS V14.01,2013-07-15 00:44:00,
2013-07-14 20:50:00,70.5,68.7,28.08,ENE,68,0.0,0.9,94,0.00,,---,0.00,VWS V14.01,2013-07-15 00:50:00,
2013-07-14 20:55:00,70.5,69.0,28.08,SSW,202,0.0,0.9,95,0.00,,---,0.00,VWS V14.01,2013-07-15 00:55:00,
2013-07-14 21:00:00,70.3,68.8,28.08,NW,315,0.0,0.0,95,0.00,,---,0.00,VWS V14.01,2013-07-15 01:00:00,
2013-07-14 21:05:00,70.3,68.8,28.08,NW,315,0.0,0.9,95,0.00,,---,0.00,VWS V14.01,2013-07-15 01:05:00,
2013-07-14 21:10:00,70.3,68.8,28.11,NNE,22,1.1,1.1,95,0.00,,---,0.00,VWS V14.01,2013-07-15 01:10:00,
2013-07-14 21:15:00,70.3,68.8,28.11,SE,135,0.9,1.3,95,0.00,,---,0.00,VWS V14.01,2013-07-15 01:15:00,
2013-07-14 21:20:00,70.2,68.7,28.11,ENE,68,0.9,0.9,95,0.00,,---,0.00,VWS V14.01,2013-07-15 01:20:00,
2013-07-14 21:25:00,70.2,68.7,28.08,ENE,68,0.0,0.0,95,0.00,,---,0.00,VWS V14.01,2013-07-15 01:25:00,
2013-07-14 21:30:00,70.2,68.7,28.08,East,90,0.0,0.0,95,0.00,,---,0.00,VWS V14.01,2013-07-15 01:30:00,
2013-07-14 21:35:00,70.2,68.7,28.08,East,90,1.1,1.1,95,0.00,,---,0.00,VWS V14.01,2013-07-15 01:35:00,
2013-07-14 21:40:00,70.2,68.7,28.11,East,90,0.0,1.3,95,0.00,,---,0.00,VWS V14.01,2013-07-15 01:40:00,
2013-07-14 21:45:00,70.0,68.5,28.11,East,90,0.0,0.0,95,0.00,,---,0.00,VWS V14.01,2013-07-15 01:45:00,
2013-07-14 21:50:00,70.0,68.5,28.11,ESE,112,0.0,0.0,95,0.00,,---,0.00,VWS V14.01,2013-07-15 01:50:00,
2013-07-14 21:55:00,69.8,68.3,28.11,ESE,112,0.9,1.1,95,0.00,,---,0.00,VWS V14.01,2013-07-15 01:55:00,
2013-07-14 22:00:00,69.8,68.3,28.11,East,90,0.9,1.1,95,0.00,,---,0.00,VWS V14.01,2013-07-15 02:00:00,
2013-07-14 22:05:00,69.8,68.3,28.11,East,90,0.0,0.0,95,0.00,,---,0.00,VWS V14.01,2013-07-15 02:05:00,
2013-07-14 22:10:00,69.8,68.3,28.11,East,90,1.6,2.0,95,0.00,,---,0.00,VWS V14.01,2013-07-15 02:10:00,
2013-07-14 22:15:00,69.8,68.3,28.11,East,90,0.0,0.0,95,0.00,,---,0.00,VWS V14.01,2013-07-15 02:15:00,
2013-07-14 22:21:00,69.8,68.3,28.11,NNE,22,0.0,0.0,95,0.00,,---,0.00,VWS V14.01,2013-07-15 02:21:00,
2013-07-14 22:26:00,69.8,68.3,28.11,WNW,292,0.0,0.0,95,0.00,,---,0.00,VWS V14.01,2013-07-15 02:26:00,
2013-07-14 22:31:00,69.8,68.3,28.11,East,90,0.0,0.0,95,0.00,,---,0.00,VWS V14.01,2013-07-15 02:31:00,
2013-07-14 22:36:00,69.8,68.3,28.11,WNW,292,0.0,1.1,95,0.00,,---,0.00,VWS V14.01,2013-07-15 02:36:00,
2013-07-14 22:41:00,69.8,68.3,28.11,East,90,0.0,0.0,95,0.00,,---,0.00,VWS V14.01,2013-07-15 02:41:00,
2013-07-14 22:46:00,69.6,68.4,28.11,NNW,338,1.3,1.3,96,0.00,,---,0.00,VWS V14.01,2013-07-15 02:46:00,
2013-07-14 22:51:00,69.6,68.4,28.11,NE,45,0.0,0.0,96,0.00,,---,0.00,VWS V14.01,2013-07-15 02:51:00,
2013-07-14 22:56:00,69.6,68.4,28.14,ESE,112,0.0,0.0,96,0.00,,---,0.00,VWS V14.01,2013-07-15 02:56:00,
2013-07-14 23:01:00,69.6,68.4,28.14,ESE,112,0.9,0.9,96,0.00,,---,0.00,VWS V14.01,2013-07-15 03:01:00,
2013-07-14 23:06:00,69.6,68.4,28.14,NE,45,0.0,0.9,96,0.00,,---,0.00,VWS V14.01,2013-07-15 03:06:00,
2013-07-14 23:11:00,69.4,68.2,28.14,East,90,0.0,1.6,96,0.00,,---,0.00,VWS V14.01,2013-07-15 03:11:00,
2013-07-14 23:16:00,69.4,68.2,28.14,West,270,0.0,0.0,96,0.00,,---,0.00,VWS V14.01,2013-07-15 03:16:00,
2013-07-14 23:21:00,69.4,68.2,28.11,WNW,292,0.0,0.0,96,0.00,,---,0.00,VWS V14.01,2013-07-15 03:21:00,
2013-07-14 23:27:00,69.4,68.2,28.11,SSW,202,0.0,0.0,96,0.00,,---,0.00,VWS V14.01,2013-07-15 03:27:00,
2013-07-14 23:32:00,69.4,68.2,28.11,WSW,248,0.0,0.0,96,0.00,,---,0.00,VWS V14.01,2013-07-15 03:32:00,
2013-07-14 23:37:00,69.4,68.2,28.11,WSW,248,0.0,0.9,96,0.00,,---,0.00,VWS V14.01,2013-07-15 03:37:00,
2013-07-14 23:42:00,69.3,68.1,28.11,WSW,248,0.0,0.0,96,0.00,,---,0.00,VWS V14.01,2013-07-15 03:42:00,
2013-07-14 23:47:00,69.3,68.1,28.11,NW,315,0.0,0.0,96,0.00,,---,0.00,VWS V14.01,2013-07-15 03:47:00,
2013-07-14 23:52:00,69.3,68.1,28.14,SSE,158,0.0,0.0,96,0.00,,---,0.00,VWS V14.01,2013-07-15 03:52:00,
2013-07-14 23:57:00,69.3,68.1,28.14,ENE,68,0.0,0.0,96,0.00,,---,0.00,VWS V14.01,2013-07-15 03:57:00,